Regional Weather Roundup
Issued by NWS

Home | Current Version | Previous Version | Text Only | Print | Product List | Glossary Off
Versions: 1 2 3 4 5 6 7 8 9 10 11 12 13 14 15 16 17 18 19 20 21 22 23 24 25 26 27 28

000
ASUS45 KBOU 250510
RWRCO

WEATHER ROUNDUP FOR COLORADO
NATIONAL WEATHER SERVICE DENVER/BOULDER CO
1000 PM MST FRI NOV 24 2017

NOTE: "FAIR" INDICATES FEW OR NO CLOUDS BELOW 12000 FEET WITH NO
SIGNIFICANT WEATHER AND/OR OBSTRUCTIONS TO VISIBILITY.

COZ001>005-013-030-031-250600-
...NORTHWEST COLORADO...

CITY           SKY/WX    TMP DP  RH WIND       PRES   REMARKS
CRAIG          FAIR      29  26  89 CALM      30.19R
HAYDEN         FAIR      35  29  78 CALM      30.21R
MEEKER         FAIR      34  27  75 CALM      30.19R
RABBIT EARS PA FAIR      28  28 100 W9G22     30.24S WCI  20
STEAMBOAT SPGS FAIR      33  31  92 E6        30.19S WCI  27
WALDEN         FAIR      32  25  74 SE8       30.20R WCI  25
$$

COZ006>008-011-250600-
...WEST CENTRAL VALLEYS...

CITY           SKY/WX    TMP DP  RH WIND       PRES   REMARKS
GRAND JUNCTION FAIR      43  31  62 E5        30.12R
MONTROSE       FAIR      39  28  64 SE9       30.18R
EAGLE          FAIR      33  25  72 SE3       30.22R
RIFLE          FAIR      37  29  72 CALM      30.16R
DELTA          FAIR      41  29  62 E6        30.15R
NUCLA          FAIR      45  23  42 SE8       30.18R
$$

COZ017>023-064>068-250600-
...SOUTHWEST COLORADO...

CITY           SKY/WX    TMP DP  RH WIND       PRES   REMARKS
DURANGO        FAIR      35  22  58 E6        30.14R WCI  30
CORTEZ         FAIR      37  25  61 NE6       30.14R
PAGOSA SPRINGS FAIR      36  25  65 CALM      30.19S
TELLURIDE      FAIR      40  24  54 SE5       30.30R
WOLF CREEK PAS FAIR      32  18  55 SW8       30.39F WCI  25
$$

COZ009-010-012-014-032>034-037-058>063-250600-
...CENTRAL COLORADO...

CITY           SKY/WX    TMP DP  RH WIND       PRES   REMARKS
ASPEN          FAIR      35  26  69 S9        30.21R WCI  28
BUENA VISTA    FAIR      42  22  44 NW13      30.17S
COPPER MTN     FAIR      32  18  55 SW7       30.33S WCI  26
BERTHOUD PASS  FAIR      21  10  63 NW28G36   30.29R WCI   3
COTTONWOOD PAS FAIR      45  21  39 W12G28    30.23S
GUNNISON       FAIR      32  22  66 CALM      30.23R
KREMMLING      FAIR      36  32  87 CALM      30.22R
LEADVILLE      FAIR      33  18  53 CALM      30.26R
MONARCH PASS   FAIR      30  19  64 W33G39    30.40R WCI  14
SALIDA         FAIR      43  23  46 CALM      30.24R
SUNLIGHT       FAIR      30  21  69 SW7       30.34R WCI  23
WILKERSON PASS FAIR      32  14  47 W12G17    30.29R WCI  23
$$

COZ069>075-250600-
...SAN LUIS VALLEY/SANGRE DE CRISTO MOUNTAINS...

CITY           SKY/WX    TMP DP  RH WIND       PRES   REMARKS
ALAMOSA        FAIR      34  19  54 N5        30.17R WCI  30
DEL NORTE      FAIR      37  21  51 W8        30.19S
LA VETA PASS   FAIR      32  27  80 N6          N/A  WCI  26
SAGUACHE       FAIR      41  18  38 N5        30.19R
$$

COZ035-036-038>040-250600-
...NORTHERN COLORADO FRONT RANGE...

CITY           SKY/WX    TMP DP  RH WIND       PRES   REMARKS
DENVER INTL AP FAIR      36  29  75 S9        30.07R
DMNS CITY PARK   N/A     44  32  61 E9        30.06R
AURORA         PTCLDY    40  33  74 S9        30.07R
FRONT RANGE AP FAIR      39  33  77 S8        30.08R
ERIE MUNI ARPT FAIR      45  32  61 CALM      30.11R
BOULDER MUN AP FAIR      43  32  65 N3        30.06R
CENTENNIAL     FAIR      43  33  68 SE7       30.07R
BROOMFIELD     FAIR      43  32  65 W7        30.07R
FORT COLLINS   FAIR      39  33  79 NE6       30.09R
LONGMONT       FAIR      44  34  67 NE9       30.08R
$$

COZ041-046-047-076>085-087-088-250600-
...PIKES PEAK/PALMER DIVIDE AND SOUTHERN FOOTHILLS...

CITY           SKY/WX    TMP DP  RH WIND       PRES   REMARKS
COLO. SPRINGS  FAIR      42  31  64 SE8       30.13R
A. F. ACADEMY  FAIR      33  28  81 E5        30.11R WCI  28
SCHRIEVER AFB  FAIR      38  29  71 CALM      30.12R
CHEYENNE MTN   FAIR      45  28  50 S7        30.07R
ELLICOTT         N/A    N/A N/A N/A N6        30.10R
FALCON         FAIR      36  29  75 CALM      30.14R
FORT CARSON    FAIR      44  31  60 S13       30.10R
LIMON          FAIR      33  29  85 W3        30.10R
MONUMENT HILL  FAIR      32  30  93 S13       30.13R WCI  22
CANON CITY     FAIR      45  32  61 N7        30.11S
WALSENBURG     FAIR      39  30  70 SW3       30.18R
TRINIDAD       FAIR      45  30  55 CALM      30.15R
$$

COZ042>045-048>051-090-091-250600-
...NORTHEAST COLORADO...

CITY           SKY/WX    TMP DP  RH WIND       PRES   REMARKS
GREELEY ARPT   FAIR      33  27  78 N3        30.10R
AKRON          FAIR      39  23  52 E7        30.07R
BURLINGTON     FAIR      43  32  65 NE6       30.06R
WRAY           NOT AVBL
YUMA           FAIR      32  27  80 NW3       30.07R
STERLING       FAIR      32  28  86 N3        30.06R
HOLYOKE        FAIR      36  27  69 NW3       30.08R
FORT MORGAN    FAIR      37  29  75 NE5       30.09R
$$

COZ086-089-092>099-250600-
...SOUTHEAST COLORADO...

CITY           SKY/WX    TMP DP  RH WIND       PRES   REMARKS
PUEBLO         FAIR      41  30  65 W3        30.11R
LA JUNTA       FAIR      52  33  48 S8        30.07R
LAMAR          FAIR      51  36  56 SW6       30.04R
SPRINGFIELD      N/A     41  31  67 N7        30.07R
$$




USA.gov is the U.S. government's official web portal to all federal, state and local government web resources and services.